Hourly Weather Roundup
Issued by NWS Central Illinois

Home | Current Version | Previous Version | Text Only | Print | Product List | Glossary On
Versions: 1 2 3 4 5 6 7 8 9 10 11 12 13 14 15 16 17 18 19 20 21 22 23 24 25 26 27 28 29 30 31 32 33 34 35 36 37 38 39 40 41 42 43 44 45 46 47 48 49 50
000
NZUS43 KILX 021210
HWRILX

AREA WEATHER ROUNDUP
NATIONAL WEATHER SERVICE, LINCOLN IL
700 AM CDT WED SEP 02 2015


CITY           SKY/WX    TMP DP  RH WIND       PRES   REMARKS
BLOOMINGTON    CLEAR     71  70  97 SW7       30.11R
6HR MIN TEMP:  70; 6HR MAX TEMP:  73;

CHAMPAIGN      CLEAR     69  67  93 S3        30.11R FOG
6HR MIN TEMP:  68; 6HR MAX TEMP:  71;

DANVILLE       RAIN      66  65  99 SW3       30.09R
6HR MIN TEMP:  64; 6HR MAX TEMP:  68;

DECATUR        CLEAR     71  67  87 SW6       30.11R
6HR MIN TEMP:  70; 6HR MAX TEMP:  76;

EFFINGHAM      CLEAR     66  64  93 CALM      30.14R FOG
FLORA          FOG       65  65  98 CALM      30.13R VSB<1/4
6HR MIN TEMP:  64; 6HR MAX TEMP:  69;

GALESBURG      PTCLDY    68  67  96 S3        30.08R FOG
JACKSONVILLE   CLEAR     74  71  90 S6        30.08R
6HR MIN TEMP:  73; 6HR MAX TEMP:  77;

LACON          CLEAR     68  66  94 CALM      30.07R FOG
6HR MIN TEMP:  67; 6HR MAX TEMP:  73;

LAWRENCEVILLE  CLEAR     68  67  96 CALM      30.13R FOG
6HR MIN TEMP:  65; 6HR MAX TEMP:  70;

LITCHFIELD     CLEAR     68  66  94 SE3       30.11R FOG
$$


CITY           SKY/WX    TMP DP  RH WIND       PRES   REMARKS
LINCOLN        CLEAR     69  67  94 CALM      30.09R FOG
6HR MIN TEMP:  68; 6HR MAX TEMP:  74;

MACOMB         MOCLDY    67  66  99 CALM      30.09R FOG
MATTOON        CLEAR     71  67  87 SW5       30.11R FOG
6HR MIN TEMP:  69; 6HR MAX TEMP:  73;

MT CARMEL AP   FOG       63  63 100 CALM      30.13R VSB<1/4
OLNEY-NOBLE AP FOG       64  64 100 CALM      30.13R VSB 1
PARIS          CLEAR     66  66  99 CALM      30.12R FOG
6HR MIN TEMP:  64; 6HR MAX TEMP:  69;

PEORIA         CLEAR     72  68  87 S3        30.08R FOG
6HR MIN TEMP:  72; 6HR MAX TEMP:  76;

PONTIAC        CLEAR     72  71  97 SW5       30.10R FOG
RANTOUL        CLEAR     71  69  93 CALM      30.11R FOG
6HR MIN TEMP:  70; 6HR MAX TEMP:  73;

ROBINSON         N/A     64  63  97 CALM      30.14R FOG
6HR MIN TEMP:  63; 6HR MAX TEMP:  67;

SPRINGFIELD    CLEAR     72  69  90 S5        30.09R
6HR MIN TEMP:  71; 6HR MAX TEMP:  76;

TAYLORVILLE    CLEAR     68  66  94 SE3       30.11R FOG
$$

...REGIONAL REPORTS...


CITY           SKY/WX    TMP DP  RH WIND       PRES   REMARKS
CHICAGO O`HARE PTCLDY    72  68  87 SW5       30.04R
KANKAKEE       CLEAR     69  68  97 CALM      30.09R FOG
MOLINE         PTCLDY    72  67  84 CALM      30.05R
MOUNT STERLING PTCLDY    68  67  98 CALM      30.07R FOG
MOUNT VERNON   CLEAR     64  59  82 CALM      30.14R
PITTSFIELD     CLEAR     70  68  94 CALM      30.09R FOG
QUINCY         PTCLDY    71  68  90 S6        30.07R FOG
ROCKFORD       PTCLDY    69  66  90 S5        30.06R FOG
$$


CITY           SKY/WX    TMP DP  RH WIND       PRES   REMARKS
BURLINGTON     MOCLDY    70  69  97 S3        30.06R FOG
CEDAR RAPIDS   CLOUDY    69  69 100 S7        30.02S
DES MOINES     TSTM      71  67  87 E13       30.01R
KIRKSVILLE     CLOUDY    71  68  90 S6        30.07R FOG
OTTUMWA        CLOUDY    70  69  97 SW6       30.03R FOG
ST LOUIS       PTCLDY    76  68  76 CALM      30.10R
$$


CITY           SKY/WX    TMP DP  RH WIND       PRES   REMARKS
TERRE HAUTE    PTCLDY    64  63  96 CALM      30.13R FOG
EVANSVILLE     CLEAR     69  67  93 CALM      30.13R FOG
INDIANAPOLIS   NOT AVBL
LAFAYETTE      CLEAR     67  66  97 CALM      30.10R FOG
MADISON        MOCLDY    70  67  90 CALM      30.02R
MILWAUKEE      PTCLDY    74  68  81 W3        30.03R
$$




USA.gov is the U.S. government's official web portal to all federal, state and local government web resources and services.